This is the latest recevied weather packets stored in our database for station/object G4KVI. If no packets are shown the sender has not sent any weather packets the latest 10 day(s).
| Time | Temp. | Humidity | Pressure | Rain* | Wind** | Luminosity | Snow |
|---|---|---|---|---|---|---|---|
| 1788198604 | 17.22° C | 71% | 1019.9 hPa | 0 mm | - | 55 W/m² | - |
| 1788198304 | 17.22° C | 71% | 1019.8 hPa | 0 mm | - | 57 W/m² | - |
| 1788198004 | 17.22° C | 70% | 1019.8 hPa | 0 mm | - | 60 W/m² | - |
| 1788197704 | 17.22° C | 70% | 1019.8 hPa | 0 mm | - | 70 W/m² | - |
| 1788197404 | 17.78° C | 69% | 1019.8 hPa | 0 mm | - | 90 W/m² | - |
| 1788197104 | 17.78° C | 68% | 1019.6 hPa | 0 mm | - | 102 W/m² | - |
| 1788196804 | 17.78° C | 68% | 1019.3 hPa | 0 mm | - | 120 W/m² | - |
| 1788196504 | 17.78° C | 67% | 1019.6 hPa | 0 mm | - | 136 W/m² | - |
| 1788196204 | 17.78° C | 66% | 1019.6 hPa | 0 mm | - | 146 W/m² | - |
| 1788195904 | 18.33° C | 66% | 1019.7 hPa | 0 mm | - | 148 W/m² | - |
| 1788195604 | 18.33° C | 67% | 1019.4 hPa | 0 mm | - | 141 W/m² | - |
| 1788195321 | 18.33° C | 67% | 1019.7 hPa | 0 mm | - | 154 W/m² | - |
| 1788195004 | 18.33° C | 67% | 1019.4 hPa | 0 mm | - | 180 W/m² | - |
| 1788194704 | 17.78° C | 67% | 1019.6 hPa | 0 mm | - | 168 W/m² | - |
| 1788194404 | 17.78° C | 67% | 1019.5 hPa | 0 mm | - | 165 W/m² | - |
| 1788194104 | 18.33° C | 67% | 1019.3 hPa | 0 mm | - | 137 W/m² | - |
| 1788193804 | 18.33° C | 65% | 1019.2 hPa | 0 mm | - | 163 W/m² | - |
| 1788193504 | 18.33° C | 64% | 1019.2 hPa | 0 mm | - | 188 W/m² | - |
| 1788193204 | 18.89° C | 65% | 1019.3 hPa | 0 mm | - | 201 W/m² | - |
| 1788192904 | 18.89° C | 63% | 1019.4 hPa | 0 mm | - | 205 W/m² | - |
| 1788192604 | 18.89° C | 63% | 1018.9 hPa | 0 mm | - | 212 W/m² | - |
| 1788192304 | 18.89° C | 61% | 1018.9 hPa | 0 mm | - | 226 W/m² | - |
| 1788192014 | 19.44° C | 61% | 1019 hPa | 0 mm | - | 262 W/m² | - |
| 1788191704 | 18.89° C | 61% | 1019.1 hPa | 0 mm | - | 314 W/m² | - |
| 1788191404 | 19.44° C | 60% | 1019 hPa | 0 mm | - | 342 W/m² | - |
* Rain latest hour (hover to see other rain measurements)
** Current wind speed in m/s (hover to see current wind gust speed)